Regional Weather Roundup
Issued by NWS State College, PA

Home | Current Version | Previous Version | Text Only | Print | Product List | Glossary On
Versions: 1 2 3 4 5 6 7 8 9 10 11 12 13 14 15 16 17 18 19 20 21 22 23 24 25 26 27 28 29 30 31 32 33 34 35 36 37 38 39 40 41 42 43 44 45 46 47 48 49 50
000
ASUS41 KCTP 260610
RWRCTP

REGIONAL WEATHER ROUNDUP
NATIONAL WEATHER SERVICE STATE COLLEGE PA
200 AM EDT THU APR 26 2018

Note: "fair" indicates few or no clouds below 12,000 feet with no
significant weather and/or obstructions to visibility.

* = STATION THAT DOES NOT REPORT PRECIPITATION /E.G. RAIN...SNOW...ETC/
    THUNDER OR FOG.

PAZ002>004-007>009-013>016-020>023-029>032-260700-
WESTERN PENNSYLVANIA

CITY           SKY/WX    TMP DP  RH WIND       PRES   REMARKS
ERIE           CLOUDY    39  34  82 W9        29.88F
MEADVILLE      CLOUDY    35  34  96 W3        29.87S
FRANKLIN*      CLOUDY    36  34  92 NW7       29.86S
NEW CASTLE     CLOUDY    40  37  89 NW9       29.91S
BEAVER COUNTY  NOT AVBL
BUTLER*        CLOUDY    40  36  86 NW7       29.88F
PITTSBURGH INT FAIR      41  37  86 NW13      29.88F
PITTSBURGH     FAIR      41  38  89 NW3       29.87S
INDIANA*       CLOUDY    43  39  87 NW7       29.89S
LATROBE        FAIR      41  37  87 W5        29.88F
WASHINGTON CO* FAIR      40  36  86 NW3       29.92F
$$

PAZ004>006-010>012-017>019-024>028-033>037-041-042-045-046-049>053-260700-
CENTRAL PENNSYLVANIA

CITY           SKY/WX    TMP DP  RH WIND       PRES   REMARKS
BRADFORD       CLOUDY    38  35  89 NW9       29.77F
DUBOIS         CLOUDY    39  36  89 W14G21    29.80F
CLEARFIELD     CLOUDY    42  36  79 W8        29.81R
JOHNSTOWN      CLOUDY    40  36  86 W12G22    29.81S
ALTOONA        FAIR      45  36  70 W8        29.81F
STATE COLLEGE  FAIR      44  37  77 W10       29.78F
WILLIAMSPORT   FAIR      50  37  61 W13       29.73S
SELINSGROVE    FAIR      50  38  63 W8        29.75S
FT INDIANTOWN  FAIR      54  45  71 W13G20    29.71S
CAPITAL CITY   FAIR      52  39  61 W14G22    29.74R
HARRISBURG     FAIR      52  41  66 W14G24    29.73R
YORK           FAIR      51  42  71 NW12      29.74R
$$

PAZ038>040-043-044-047-048-054-055-060>062-067>071-260700-
EASTERN PENNSYLVANIA

CITY           SKY/WX    TMP DP  RH WIND       PRES   REMARKS
SCRANTON       CLOUDY    53  51  93 W7        29.67F
MOUNT POCONO   CLOUDY    49  48  97 NW15G24   29.65S
ALLENTOWN      CLOUDY    58  53  84 W7        29.66R
QUAKERTOWN*    CLOUDY    57  55  94 VRB6      29.67R
READING        MOCLDY    57  52  83 NW9       29.68R
LANCASTER      FAIR      55  47  74 NW13      29.70S
COATESVILLE    FAIR      55  52  88 NW12      29.69S
POTTSTOWN      CLOUDY    56  54  93 NW6       29.68S
BLUE BELL      CLOUDY    55  54  94 W5        29.67S
DOYLESTOWN     CLOUDY    58  54  86 W7        29.65R
WILLOW GROVE   NOT AVBL
NORTH PHILA    CLOUDY    61  55  81 NW12      29.65F
PHILADELPHIA   CLOUDY    61  53  75 NW10      29.66F
$$




USA.gov is the U.S. government's official web portal to all federal, state and local government web resources and services.